STARLINK-32824, 62817

Orbit data source: Space-Track

STARLINK-32824, 62817 is a payload satellite owned by SpaceX/Seattle (US) in LEO that was launched on Fri, 24 Jan 2025 UTC via an FALCON 9 launch vehicle from the Air Force Western Test Range (AFWTR). Payload-class satellites include a variety of spacecraft equipped with specific instruments for various scientific and technological missions. These include communications satellites like Starlink; space stations such as the ISS; scientific satellites like the Hubble; Earth observation satellites from companies like Planet Labs, Umbra, and HawkEye 360; GPS; miniature CubeSats for education and research; and military/defense satellites.

Loading next visibility...
Identifier
62817, 2025-018M
Orbit
LEO
Last TLE update
13 hours ago
Origin
Manufacturer
SpaceX/Seattle
Mission
Operational Commercial Communications
Bus & Motor
STARLINK V2M, Unknown motor
Mass
730 kg wet, ~700 kg dry
Launch date (UTC)
2025-01-24 (5 months ago)
Launch vehicle
FALCON 9
Launch site
Air Force Western Test Range (AFWTR)
Object type
Payload
Rocket body
Debris
Shape & HBR
Box + 2 Pan, 29 m
Radar Cross Section
33.884 m², Large (>1 m²)

Expand to show TLE details & history

TLE from 13 hours ago
0 STARLINK-32824
1 62817U 25018M   25188.77523999  .00022986  00000-0  78559-3 0  9999
2 62817  53.1589   7.0069 0000866 106.2475 253.8621 15.30208390 26628
Epoch: 2025-07-07T18:36Z
TLE epoch observation values (Epoch: 2025-07-07T18:36:20.735Z)
Latitude
-0.00001°
Longitude
161.94076°
Altitude
476.255 km
Speed
7.629 km/s
True Right ascension
00h 28m 01s
True Declination
0° 00' 00"
Sunlit
Object was in daylight at epoch
Visualization orbit readout
Latitude
46.50991°
Longitude
-72.34328°
Altitude
479.553 km
Speed
7.632 km/s
Apparent Right ascension
08h 17m 03s
Apparent Declination
5° 17' 15"
Sunlit
Object is in daylight
Visualization observer readout
Local Sidereal Time
19:44:25
Azimuth
348.636° N
Elevation
-44.176°
Doppler factor
1
Orbital elements
Apogee altitude
476.04 km
Perigee altitude
474.853 km
Semi-major axis
6,853.584 km
Eccentricity
0.00009
Inclination
53.1589°
RAAN
7.0069°
Arg. of periapsis
106.2475°
True anomaly
Unknown
Mean anomaly
253.8621°
Eccentric anomaly
Unknown
Mean motion
3.82531 °/min
Orbital period
94.11 mins
BSTAR
0.00078559
Loading maneuver chart data...
Loading SW <> Apogee altitude chart data...
Loading historical data...
Loading historical data...
Loading historical data...
Loading historical data...
Loading historical data...
Loading historical data...
Loading historical data...

STARLINK-32824 Visibility forecast

Observer location: undefined°, undefined°

Span
Click to sort rows by Start time (UTC) header in descending order
Start Az.
Max El. time (UTC)
Max El. Az.
Max El.
End time (UTC)
End Az.
5 mins2025-07-08 13:33:50.451Z178.905° S2025-07-08 13:36:50.451Z122.598° SE19.708°2025-07-08 13:38:50.451Z84.937° E
5 mins2025-07-08 15:11:50.451Z258.281° W2025-07-08 15:13:50.451Z303.931° NW34.179°2025-07-08 15:16:50.451Z34.006° NE
4 mins2025-07-08 20:09:50.451Z355.133° N2025-07-08 20:10:50.451Z19.185° NNE22.201°2025-07-08 20:13:50.451Z80.326° E
5 mins2025-07-08 21:46:50.451Z294.741° NW2025-07-08 21:48:50.451Z248.411° W36.839°2025-07-08 21:51:50.451Z152.68° SSE
|